GW7154 Weather Reports


Display with metric or nautical units.
time (UTC)temp
F
wind
direction
speed
MPH
gust
MPH
rain 1hr
in
rain 24hr
in
rain mn
in
humidity
%
barometer
mb
20260510230346 64 300 2.0 2.0 0.00 0.06 0.06 94 1011.5
20260510225843 64 270 2.0 2.0 0.06 0.06 0.06 93 1011.8
20260510225339 65 44 0.0 0.0 0.06 0.06 0.06 93 1011.8
20260510224835 65 1 1.0 1.0 0.06 0.06 0.06 93 1011.5
20260510224332 65 66 1.0 1.0 0.06 0.06 0.06 91 1011.5
20260510223829 66 12 3.0 3.0 0.06 0.06 0.06 89 1011.5
20260510223326 67 313 2.0 2.0 0.03 0.03 0.03 82 1011.5
20260510222823 74 324 0.0 0.0 0.00 0.00 0.00 58 1010.5
20260510222320 74 330 1.0 1.0 0.00 0.00 0.00 54 1010.2
20260510221815 75 46 0.0 0.0 0.00 0.00 0.00 56 1010.2
20260510221312 75 46 0.0 0.0 0.00 0.00 0.00 53 1009.8
20260510220808 75 46 0.0 0.0 0.00 0.00 0.00 56 1009.8
20260510220304 76 46 0.0 0.0 0.00 0.00 0.00 53 1010.2
20260510215801 77 46 0.0 0.0 0.00 0.00 0.00 49 1009.5
20260510215259 78 46 0.0 0.0 0.00 0.00 0.00 48 1009.8
20260510214756 78 50 0.0 0.0 0.00 0.00 0.00 46 1009.8
20260510214252 78 50 0.0 0.0 0.00 0.00 0.00 45 1009.8
20260510213749 78 50 0.0 0.0 0.00 0.00 0.00 45 1009.8
20260510213246 78 50 0.0 0.0 0.00 0.00 0.00 43 1009.5
20260510212743 78 240 0.0 0.0 0.00 0.00 0.00 46 1009.5
20260510212240 79 337 0.0 0.0 0.00 0.00 0.00 44 1009.5
20260510211736 79 138 0.0 0.0 0.00 0.00 0.00 44 1009.8
20260510211232 79 213 0.0 0.0 0.00 0.00 0.00 41 1009.5
20260510210729 79 193 0.0 0.0 0.00 0.00 0.00 41 1009.5
20260510210229 80 54 0.0 0.0 0.00 0.00 0.00 40 1009.5
20260510205729 80 132 0.0 0.0 0.00 0.00 0.00 37 1009.5
20260510205224 81 336 2.0 2.0 0.00 0.00 0.00 39 1009.1
20260510204720 82 312 0.0 0.0 0.00 0.00 0.00 38 1009.1
20260510204217 82 31 0.0 0.0 0.00 0.00 0.00 38 1009.5
20260510203714 81 66 2.0 2.0 0.00 0.00 0.00 37 1009.1
20260510203212 81 29 2.0 2.0 0.00 0.00 0.00 36 1009.1
20260510202711 82 336 4.0 4.0 0.00 0.00 0.00 35 1009.5
20260510202207 82 338 0.0 0.0 0.00 0.00 0.00 35 1009.5
20260510201705 80 144 0.0 0.0 0.00 0.00 0.00 38 1009.5
20260510201201 79 38 2.0 2.0 0.00 0.00 0.00 41 1009.5
20260510200657 79 228 2.0 2.0 0.00 0.00 0.00 37 1009.8
20260510200155 80 312 0.0 0.0 0.00 0.00 0.00 38 1009.8
20260510195652 82 44 2.0 2.0 0.00 0.00 0.00 33 1009.8
20260510195149 81 49 0.0 0.0 0.00 0.00 0.00 34 1009.8
20260510194648 82 142 0.0 0.0 0.00 0.00 0.00 35 1009.8
20260510194144 82 120 2.0 2.0 0.00 0.00 0.00 36 1009.8
20260510193640 82 226 0.0 0.0 0.00 0.00 0.00 34 1009.8
20260510193135 82 294 0.0 0.0 0.00 0.00 0.00 36 1009.8
20260510192631 81 162 0.0 0.0 0.00 0.00 0.00 37 1009.8
20260510192126 81 84 4.0 4.0 0.00 0.00 0.00 38 1009.8
20260510191623 82 284 0.0 0.0 0.00 0.00 0.00 35 1010.2
20260510191120 83 339 0.0 0.0 0.00 0.00 0.00 36 1010.2
20260510190617 83 276 0.0 0.0 0.00 0.00 0.00 39 1010.2
20260510190115 82 210 3.0 3.0 0.00 0.00 0.00 36 1010.2
20260510185611 80 340 1.0 1.0 0.00 0.00 0.00 37 1010.2
20260510185109 80 150 2.0 2.0 0.00 0.00 0.00 37 1010.2
20260510184606 82 204 0.0 0.0 0.00 0.00 0.00 33 1010.2
20260510184101 82 345 0.0 0.0 0.00 0.00 0.00 33 1010.2
20260510183556 82 132 2.0 2.0 0.00 0.00 0.00 37 1010.2
20260510183052 82 26 0.0 0.0 0.00 0.00 0.00 34 1010.2
20260510182549 82 188 0.0 0.0 0.00 0.00 0.00 36 1010.2
20260510182050 81 186 2.0 2.0 0.00 0.00 0.00 39 1010.5
20260510181548 81 31 1.0 1.0 0.00 0.00 0.00 35 1010.2
20260510181043 82 330 4.0 4.0 0.00 0.00 0.00 38 1010.2
20260510180540 81 18 1.0 1.0 0.00 0.00 0.00 39 1010.2
20260510180038 81 72 3.0 4.0 0.00 0.00 0.00 38 1010.2
20260510175533 81 76 2.0 2.0 0.00 0.00 0.00 39 1010.5
20260510175029 80 115 2.0 2.0 0.00 0.00 0.00 40 1010.2
20260510174528 80 249 3.0 3.0 0.00 0.00 0.00 40 1010.5
20260510174024 80 165 1.0 1.0 0.00 0.00 0.00 40 1010.5
20260510173519 80 280 2.0 2.0 0.00 0.00 0.00 43 1010.5
20260510173017 79 18 0.0 0.0 0.00 0.00 0.00 43 1010.5
20260510172512 80 180 0.0 0.0 0.00 0.00 0.00 44 1010.5
20260510172009 80 192 0.0 0.0 0.00 0.00 0.00 44 1010.5
20260510171506 79 210 2.0 2.0 0.00 0.00 0.00 42 1010.5
20260510171002 78 90 1.0 1.0 0.00 0.00 0.00 43 1010.5
20260510170459 79 342 0.0 0.0 0.00 0.00 0.00 43 1010.5
20260510165955 79 159 4.0 4.0 0.00 0.00 0.00 42 1010.8
20260510165451 78 132 2.0 2.0 0.00 0.00 0.00 42 1010.5
20260510164948 78 24 0.0 0.0 0.00 0.00 0.00 44 1010.8
20260510164445 79 274 0.0 0.0 0.00 0.00 0.00 46 1010.8
20260510163940 78 296 0.0 0.0 0.00 0.00 0.00 46 1010.5
20260510163436 78 110 0.0 0.0 0.00 0.00 0.00 48 1010.8
20260510162931 78 1 2.0 2.0 0.00 0.00 0.00 49 1010.8
20260510162429 77 291 0.0 0.0 0.00 0.00 0.00 46 1010.8
20260510161925 77 355 3.0 3.0 0.00 0.00 0.00 46 1010.8
20260510161420 78 288 0.0 0.0 0.00 0.00 0.00 47 1010.8
20260510160918 77 315 0.0 0.0 0.00 0.00 0.00 49 1010.8
20260510160415 77 354 2.0 2.0 0.00 0.00 0.00 48 1010.8
20260510155913 78 269 0.0 0.0 0.00 0.00 0.00 48 1010.8
20260510155411 78 284 2.0 2.0 0.00 0.00 0.00 51 1010.8
20260510154907 78 168 0.0 0.0 0.00 0.00 0.00 50 1010.8
20260510154403 77 88 0.0 0.0 0.00 0.00 0.00 52 1010.8
20260510153857 76 306 3.0 3.0 0.00 0.00 0.00 52 1010.5
20260510153353 76 24 4.0 4.0 0.00 0.00 0.00 51 1010.5
20260510152850 75 66 0.0 0.0 0.00 0.00 0.00 54 1010.5
20260510152348 76 294 2.0 2.0 0.00 0.00 0.00 52 1010.8
20260510151843 76 71 2.0 2.0 0.00 0.00 0.00 51 1010.5
20260510151341 75 83 2.0 2.0 0.00 0.00 0.00 55 1010.5
20260510150837 75 156 3.0 4.0 0.00 0.00 0.00 53 1010.5
20260510150333 75 116 5.0 5.0 0.00 0.00 0.00 56 1010.5
20260510145830 75 6 0.0 0.0 0.00 0.00 0.00 56 1010.5
20260510145326 76 211 0.0 0.0 0.00 0.00 0.00 59 1010.5
20260510144822 74 60 0.0 0.0 0.00 0.00 0.00 61 1010.5
20260510144319 74 22 2.0 2.0 0.00 0.00 0.00 59 1010.5
20260510143819 73 166 0.0 0.0 0.00 0.00 0.00 59 1010.5
20260510143315 73 27 4.0 4.0 0.00 0.00 0.00 60 1010.5
20260510142812 72 288 2.0 2.0 0.00 0.00 0.00 60 1010.5
20260510142309 73 297 1.0 1.0 0.00 0.00 0.00 58 1010.5
20260510141806 73 34 2.0 2.0 0.00 0.00 0.00 60 1010.5
20260510141304 73 294 0.0 0.0 0.00 0.00 0.00 63 1010.5
20260510140801 73 313 0.0 0.0 0.00 0.00 0.00 62 1010.5
20260510140256 72 41 0.0 0.0 0.00 0.00 0.00 61 1010.5
20260510135755 71 42 0.0 0.0 0.00 0.00 0.00 64 1010.5
20260510135251 70 44 0.0 0.0 0.00 0.00 0.00 68 1010.2
20260510134749 71 121 0.0 0.0 0.00 0.00 0.00 66 1010.5
20260510134246 70 170 1.0 1.0 0.00 0.00 0.00 68 1010.5
20260510133742 70 289 0.0 0.0 0.00 0.00 0.00 71 1010.5
20260510133238 69 288 2.0 2.0 0.00 0.00 0.00 71 1010.5
20260510132734 68 67 0.0 0.0 0.00 0.00 0.00 74 1010.5
20260510132232 67 319 0.0 0.0 0.00 0.00 0.00 73 1010.5
20260510131728 66 92 0.0 0.0 0.00 0.00 0.00 74 1010.5
20260510131227 66 54 2.0 2.0 0.00 0.00 0.00 77 1010.8
20260510130723 65 298 2.0 2.0 0.00 0.00 0.00 79 1010.8
20260510130220 64 28 2.0 2.0 0.00 0.00 0.00 79 1010.8
20260510125716 64 78 2.0 2.0 0.00 0.00 0.00 78 1011.2
20260510125212 64 18 0.0 0.0 0.00 0.00 0.00 79 1011.2
20260510124709 64 58 0.0 0.0 0.00 0.00 0.00 80 1010.8
20260510124207 63 59 2.0 2.0 0.00 0.00 0.00 82 1010.8
20260510123701 61 348 1.0 1.0 0.00 0.00 0.00 84 1010.8
20260510123158 61 306 2.0 2.0 0.00 0.00 0.00 86 1010.8
20260510122654 61 73 2.0 2.0 0.00 0.00 0.00 85 1010.8
20260510122151 61 283 0.0 0.0 0.00 0.00 0.00 86 1010.5
20260510121647 62 42 2.0 2.0 0.00 0.00 0.00 82 1010.5
20260510121144 61 49 0.0 0.0 0.00 0.00 0.00 86 1010.5
20260510120642 60 64 0.0 0.0 0.00 0.00 0.00 84 1010.8
20260510120137 60 64 0.0 0.0 0.00 0.00 0.00 87 1010.5
20260510115634 60 68 0.0 0.0 0.00 0.00 0.00 88 1010.5
20260510115132 60 68 0.0 0.0 0.00 0.00 0.00 88 1010.2
20260510114627 59 72 0.0 0.0 0.00 0.00 0.00 89 1010.5
20260510114124 58 72 0.0 0.0 0.00 0.00 0.00 89 1010.5
20260510113619 57 259 0.0 0.0 0.00 0.00 0.00 92 1010.2
20260510113117 56 259 0.0 0.0 0.00 0.00 0.00 91 1010.2
20260510112613 55 259 0.0 0.0 0.00 0.00 0.00 96 1010.2
20260510112109 53 278 0.0 0.0 0.00 0.00 0.00 98 1010.2
20260510111606 53 278 0.0 0.0 0.00 0.00 0.00 99 1010.2
20260510111102 53 276 0.0 0.0 0.00 0.00 0.00 99 1009.5
20260510110558 54 276 0.0 0.0 0.00 0.00 0.00 99 1009.8
20260510110055 55 276 0.0 0.0 0.00 0.00 0.00 99 1009.5
20260510105550 53 276 0.0 0.0 0.00 0.00 0.00 99 1009.5
20260510105045 52 276 0.0 0.0 0.00 0.00 0.00 99 1009.5
20260510104542 51 276 0.0 0.0 0.00 0.00 0.00 99 1009.8
20260510104038 50 276 0.0 0.0 0.00 0.00 0.00 99 1009.5
20260510103536 50 276 0.0 0.0 0.00 0.00 0.00 99 1009.5
20260510103032 50 276 0.0 0.0 0.00 0.00 0.00 99 1009.5
20260510102528 50 276 0.0 0.0 0.00 0.00 0.00 99 1009.5
20260510102024 50 276 0.0 0.0 0.00 0.00 0.00 99 1009.5
20260510101522 50 276 0.0 0.0 0.00 0.00 0.00 99 1009.5
20260510101020 50 276 0.0 0.0 0.00 0.00 0.00 99 1009.5
20260510100516 51 276 0.0 0.0 0.00 0.00 0.00 99 1009.5
20260510100013 51 276 0.0 0.0 0.00 0.00 0.00 99 1009.5
20260510095509 51 282 0.0 0.0 0.00 0.00 0.00 99 1009.5
20260510095008 51 278 0.0 0.0 0.00 0.00 0.00 99 1009.5
20260510094503 51 282 0.0 0.0 0.00 0.00 0.00 99 1009.8
20260510093958 51 276 0.0 0.0 0.00 0.00 0.00 99 1009.1
20260510093454 51 276 0.0 0.0 0.00 0.00 0.00 99 1009.1
20260510092951 51 278 0.0 0.0 0.00 0.00 0.00 99 1009.1
20260510092449 51 36 0.0 0.0 0.00 0.00 0.00 99 1008.8
20260510091948 51 36 0.0 0.0 0.00 0.00 0.00 99 1008.8
20260510091445 51 36 0.0 0.0 0.00 0.00 0.00 99 1008.8
20260510090942 51 36 0.0 0.0 0.00 0.00 0.00 99 1008.8
20260510090439 51 36 0.0 0.0 0.00 0.00 0.00 99 1008.5
20260510085934 51 36 0.0 0.0 0.00 0.00 0.00 99 1008.5
20260510085430 51 36 0.0 0.0 0.00 0.00 0.00 99 1008.8
20260510084925 51 36 0.0 0.0 0.00 0.00 0.00 99 1008.5
20260510084423 51 36 0.0 0.0 0.00 0.00 0.00 99 1008.5
20260510083919 51 36 0.0 0.0 0.00 0.00 0.00 99 1008.5
20260510083416 51 36 0.0 0.0 0.00 0.00 0.00 99 1008.5
20260510082911 51 36 0.0 0.0 0.00 0.00 0.00 99 1008.5
20260510082409 51 36 0.0 0.0 0.00 0.00 0.00 99 1008.5
20260510081908 51 36 0.0 0.0 0.00 0.00 0.00 99 1008.1
20260510081404 51 36 0.0 0.0 0.00 0.00 0.00 99 1008.1
20260510080901 51 36 0.0 0.0 0.00 0.00 0.00 99 1007.8
20260510080400 51 36 0.0 0.0 0.00 0.00 0.00 99 1008.1
20260510075857 51 36 0.0 0.0 0.00 0.00 0.00 99 1008.1
20260510075355 51 36 0.0 0.0 0.00 0.00 0.00 99 1008.1
20260510074851 52 36 0.0 0.0 0.00 0.00 0.00 99 1007.8
20260510074348 52 36 0.0 0.0 0.00 0.00 0.00 99 1007.8
20260510073844 51 36 0.0 0.0 0.00 0.00 0.00 99 1008.1
20260510073340 52 36 0.0 0.0 0.00 0.00 0.00 99 1007.8
20260510072836 52 36 0.0 0.0 0.00 0.00 0.00 99 1008.1
20260510072334 52 36 0.0 0.0 0.00 0.00 0.00 99 1008.1
20260510071830 52 36 0.0 0.0 0.00 0.00 0.00 99 1008.1
20260510071326 52 36 0.0 0.0 0.00 0.00 0.00 99 1007.8
20260510070825 52 36 0.0 0.0 0.00 0.00 0.00 99 1007.8
20260510070321 52 36 0.0 0.0 0.00 0.00 0.00 99 1007.8
20260510065816 52 36 0.0 0.0 0.00 0.00 0.00 99 1008.1
20260510065313 52 36 0.0 0.0 0.00 0.00 0.00 99 1007.8
20260510064810 52 36 0.0 0.0 0.00 0.00 0.00 98 1007.8
20260510064308 52 36 0.0 0.0 0.00 0.00 0.00 99 1007.8
20260510063809 52 36 0.0 0.0 0.00 0.00 0.00 98 1007.8
20260510063305 53 36 0.0 0.0 0.00 0.00 0.00 98 1007.8
20260510062802 53 36 0.0 0.0 0.00 0.00 0.00 98 1008.1
20260510062257 53 36 0.0 0.0 0.00 0.00 0.00 98 1008.1
20260510061753 53 36 0.0 0.0 0.00 0.00 0.00 98 1007.8
20260510061251 53 36 0.0 0.0 0.00 0.00 0.00 98 1007.8
20260510060746 53 36 0.0 0.0 0.00 0.00 0.00 98 1007.8
20260510060244 53 36 0.0 0.0 0.00 0.00 0.00 98 1007.8
20260510055740 53 36 0.0 0.0 0.00 0.00 0.00 98 1008.1
20260510055239 53 36 0.0 0.0 0.00 0.00 0.00 98 1007.8
20260510054738 53 36 0.0 0.0 0.00 0.00 0.00 98 1007.8
20260510054234 53 36 0.0 0.0 0.00 0.00 0.00 98 1007.8
20260510053733 53 36 0.0 0.0 0.00 0.00 0.00 98 1008.1
20260510053230 53 36 0.0 0.0 0.00 0.00 0.00 98 1007.8
20260510052726 53 36 0.0 0.0 0.00 0.00 0.00 98 1008.1
20260510052222 53 36 0.0 0.0 0.00 0.00 0.00 98 1008.1
20260510051718 53 36 0.0 0.0 0.00 0.00 0.00 98 1008.1
20260510051215 53 36 0.0 0.0 0.00 0.00 0.00 98 1008.5
20260510050712 53 36 0.0 0.0 0.00 0.00 0.00 98 1008.1
20260510050209 53 36 0.0 0.0 0.00 0.00 0.00 97 1008.1
20260510045706 53 36 0.0 0.0 0.00 0.00 0.00 98 1008.1
20260510045203 53 36 0.0 0.0 0.00 0.00 0.00 97 1008.1
20260510044659 53 36 0.0 0.0 0.00 0.00 0.00 97 1008.1
20260510044157 53 36 0.0 0.0 0.00 0.00 0.00 97 1008.1
20260510043652 53 36 0.0 0.0 0.00 0.00 0.00 97 1008.1
20260510043149 53 36 0.0 0.0 0.00 0.00 0.00 97 1008.1
20260510042646 53 36 0.0 0.0 0.00 0.00 0.00 97 1008.1
20260510042142 54 36 0.0 0.0 0.00 0.00 0.00 97 1008.1
20260510041639 54 36 0.0 0.0 0.00 0.00 0.00 96 1008.1
20260510041136 54 36 0.0 0.0 0.00 0.00 0.00 96 1008.1
20260510040634 54 36 0.0 0.0 0.00 0.00 0.00 96 1008.1
20260510040130 54 36 0.0 0.0 0.00 0.00 0.00 96 1008.1
20260510035626 54 36 0.0 0.0 0.00 0.00 0.00 95 1007.8
20260510035121 54 36 0.0 0.0 0.00 0.00 0.00 95 1008.1
20260510034618 54 36 0.0 0.0 0.00 0.00 0.00 95 1008.1
20260510034115 54 36 0.0 0.0 0.00 0.00 0.00 95 1008.1
20260510033612 54 36 0.0 0.0 0.00 0.00 0.00 95 1008.1
20260510033109 54 36 0.0 0.0 0.00 0.00 0.00 94 1007.8
20260510032605 54 36 0.0 0.0 0.00 0.00 0.00 94 1007.8
20260510032101 55 36 0.0 0.0 0.00 0.00 0.00 94 1008.1
20260510031556 55 36 0.0 0.0 0.00 0.00 0.00 94 1007.8
20260510031052 54 36 0.0 0.0 0.00 0.00 0.00 94 1007.8
20260510030548 55 36 0.0 0.0 0.00 0.00 0.00 93 1007.8
20260510030045 55 36 0.0 0.0 0.00 0.00 0.00 93 1008.1
20260510025542 55 36 0.0 0.0 0.00 0.00 0.00 92 1008.1
20260510025040 55 36 0.0 0.0 0.00 0.00 0.00 92 1007.8
20260510024536 55 36 0.0 0.0 0.00 0.00 0.00 92 1007.8
20260510024032 55 36 0.0 0.0 0.00 0.00 0.00 91 1007.8
20260510023529 55 36 0.0 0.0 0.00 0.00 0.00 91 1007.8
20260510023027 55 36 0.0 0.0 0.00 0.00 0.00 91 1007.8
20260510022526 55 36 0.0 0.0 0.00 0.00 0.00 91 1007.8
20260510022026 55 36 0.0 0.0 0.00 0.00 0.00 91 1007.8
20260510021523 56 36 0.0 0.0 0.00 0.00 0.00 90 1007.8
20260510021020 56 36 0.0 0.0 0.00 0.00 0.00 90 1007.8
20260510020514 56 36 0.0 0.0 0.00 0.00 0.00 90 1007.8
20260510020010 56 36 0.0 0.0 0.00 0.00 0.00 90 1007.8
20260510015506 56 36 0.0 0.0 0.00 0.00 0.00 90 1007.4
20260510015002 56 36 0.0 0.0 0.00 0.00 0.00 90 1007.4
20260510014459 56 36 0.0 0.0 0.00 0.00 0.00 90 1007.8
20260510013956 56 36 0.0 0.0 0.00 0.00 0.00 90 1007.8
20260510013450 56 36 0.0 0.0 0.00 0.00 0.00 89 1007.8
20260510012946 56 36 0.0 0.0 0.00 0.00 0.00 89 1007.8
20260510012441 56 36 0.0 0.0 0.00 0.00 0.00 89 1007.8
20260510011936 57 36 0.0 0.0 0.00 0.00 0.00 88 1007.4
20260510011431 57 36 0.0 0.0 0.00 0.00 0.00 88 1007.4
20260510010928 57 36 0.0 0.0 0.00 0.00 0.00 87 1007.4
20260510010425 57 36 0.0 0.0 0.00 0.00 0.00 87 1007.4
20260510005922 57 36 0.0 0.0 0.00 0.00 0.00 87 1007.1
20260510005418 58 36 0.0 0.0 0.00 0.00 0.00 86 1007.4
20260510004915 58 36 0.0 0.0 0.00 0.00 0.00 86 1007.1
20260510004413 58 36 0.0 0.0 0.00 0.00 0.00 84 1007.1
20260510003910 59 36 0.0 0.0 0.00 0.00 0.00 84 1007.1
20260510003407 59 36 0.0 0.0 0.00 0.00 0.00 83 1007.1
20260510002906 59 36 0.0 0.0 0.00 0.00 0.00 82 1007.1
20260510002404 60 35 0.0 0.0 0.00 0.00 0.00 81 1007.1
20260510001900 60 36 0.0 0.0 0.00 0.00 0.00 80 1007.1
20260510001358 61 36 0.0 0.0 0.00 0.00 0.00 79 1007.4
20260510000854 61 36 0.0 0.0 0.00 0.00 0.00 78 1007.1
20260510000351 61 36 0.0 0.0 0.00 0.00 0.00 77 1007.1
20260509235847 62 44 0.0 0.0 0.00 0.00 0.00 76 1007.1
20260509235344 62 342 0.0 0.0 0.00 0.00 0.00 76 1007.1
20260509234840 62 36 0.0 0.0 0.00 0.00 0.00 75 1006.8
20260509234337 62 0 0.0 0.0 0.00 0.00 0.00 75 1007.1
20260509233836 63 40 0.0 0.0 0.00 0.00 0.00 75 1006.8
20260509233333 63 40 0.0 0.0 0.00 0.00 0.00 75 1006.8
20260509232828 63 96 0.0 0.0 0.00 0.00 0.00 74 1006.8
20260509232327 64 146 0.0 0.0 0.00 0.00 0.00 73 1006.8
20260509231822 64 30 0.0 0.0 0.00 0.00 0.00 73 1006.8
20260509231319 64 42 0.0 0.0 0.00 0.00 0.00 72 1006.8